Location: Nantong Television Tower
(32.0188°N, 120.8512°E)
Time: 21:26:16
(UTC+08:00)

Vanguard 3 - Visible Passes

Search period start: 29 May 2016 00:00
Search period end: 08 June 2016 00:00
Orbit: 509 x 3267 km, 33.3° (Epoch: 29 May)

Date Brightness Start Highest point End Pass type
(mag) Time Alt. Az. Time Alt. Az. Time Alt. Az.
29 May 11.3 00:29:21 10° WSW 00:29:40 10° WSW 00:29:40 10° WSW visible
29 May 10.2 20:48:14 10° WNW 21:04:08 54° SSW 21:15:21 30° SSE visible
29 May 10.8 23:06:25 10° W 23:19:37 23° SW 23:19:55 23° SW visible
30 May 10.0 19:33:41 10° WNW 19:47:59 68° SSW 20:05:40 15° SE visible
30 May 10.5 21:48:54 10° W 22:04:03 35° SW 22:10:15 30° S visible
31 May 10.3 20:33:20 10° W 20:48:09 49° SSW 21:00:36 24° SSE visible
31 May 11.0 22:52:14 10° W 23:03:39 19° SW 23:05:12 19° SW visible
01 Jun 10.0 19:18:55 10° WNW 19:32:13 62° SSW 19:51:01 11° SE visible
01 Jun 10.7 21:34:13 10° W 21:48:04 31° SW 21:55:36 24° S visible
02 Jun 10.4 20:18:36 10° W 20:32:17 43° SSW 20:46:04 19° SSE visible
02 Jun 11.1 22:38:46 10° WSW 22:47:50 15° SW 22:50:40 15° SW visible
03 Jun 10.1 19:04:15 10° W 19:16:33 56° SSW 19:35:03 10° SE visible
03 Jun 10.8 21:19:52 10° W 21:32:14 26° SW 21:41:11 18° S visible
04 Jun 10.5 20:04:03 10° W 20:16:33 37° SSW 20:31:44 13° SSE visible
04 Jun 11.3 22:26:53 10° WSW 22:32:11 12° SW 22:36:20 11° SSW visible
05 Jun 11.0 21:05:55 10° W 21:16:32 21° SW 21:26:57 13° S visible
06 Jun 10.6 19:49:44 10° W 20:00:58 31° SSW 20:16:13 10° SSE visible
07 Jun 11.1 20:52:36 10° WSW 21:01:01 16° SW 21:10:52 10° S visible
